Regional Weather Roundup
Issued by NWS Midland/Odessa, TX

Home | Current Version | Previous Version | Text Only | Print | Product List | Glossary On
Versions: 1 2 3 4 5 6 7 8 9 10 11 12 13 14 15 16 17 18 19 20 21 22 23 24 25 26 27 28 29 30 31 32 33 34 35 36 37 38 39 40 41 42 43 44 45 46 47 48 49 50
000
ASUS44 KMAF 261510
RWRMAF
MIDLAND AREA WEATHER ROUNDUP
NATIONAL WEATHER SERVICE MIDLAND TX
1000 AM CDT SAT JUL 26 2014

...IN SOUTHWEST TEXAS AND SOUTHEAST NEW MEXICO...

CITY           SKY/WX    TMP DP  RH WIND       PRES   REMARKS
ALPINE         SUNNY     82  55  39 SW12      30.21S
ANDREWS        FAIR      82  61  49 S8        30.08S
ARTESIA        SUNNY     81  59  47 S10       30.07S
BIG SPRING     SUNNY     85  60  42 S17       30.08S
CARLSBAD       SUNNY     83  60  45 SE10      30.04S
DRYDEN           N/A     84  69  60 E6        30.04R
FORT STOCKTON  SUNNY     84  60  44 S8        30.06R
GUAD PASS      SUNNY     78  56  46 SW17        N/A
HOBBS          SUNNY     79  61  53 SE9       30.10S
MARFA          SUNNY     75  57  53 S7        30.21S
MIDLAND AIRPK  SUNNY     85  62  46 S13       30.07S
MIDLAND INTL   SUNNY     84  63  49 S12       30.06S
ODESSA         SUNNY     83  62  49 S13       30.07R
PECOS          SUNNY     81  60  49 NE3       30.03R
PRESIDIO       FAIR      88  56  33 E3        30.05S
SEMINOLE       SUNNY     82  61  48 S8        30.09F
SNYDER         SUNNY     83  64  54 S12       30.06F
WINK           SUNNY     83  63  50 E10       30.03R
$$
...OTHER STATIONS IN TEXAS...

CITY           SKY/WX    TMP DP  RH WIND       PRES   REMARKS
ABILENE        SUNNY     84  67  56 S16       30.04S
AMARILLO       SUNNY     83  60  45 SW17      30.06S
AUSTIN         MOSUNNY   85  71  63 S16G22    30.05R
BROWNSVILLE    MOSUNNY   89  76  65 S18G24    30.02S HX 100
CORPUS CHRISTI MOSUNNY   88  75  65 S17       30.02F
DALLAS FTW     SUNNY     89  70  53 S12       30.00S
DEL RIO        SUNNY     84  69  60 SE16      30.00R
EL PASO        SUNNY     82  52  35 SE9       30.08R
HOUSTON INT    PTSUNNY   86  75  69 SW8       30.07R
LUBBOCK        MOSUNNY   83  62  49 S17       30.08R
SAN ANGELO     SUNNY     84  67  56 S8        30.05R
SAN ANTONIO    MOSUNNY   83  72  69 S9G20     30.06R
WACO           SUNNY     87  72  60 S14       30.03S
WICHITA FALLS  NOT AVBL
$$
...OTHER LOCATIONS IN NEW MEXICO...

CITY           SKY/WX    TMP DP  RH WIND       PRES   REMARKS
ALAMAGORDO     SUNNY     88  45  22 S13       30.10F
ALBUQUERQUE    MOSUNNY   80  47  31 CALM      30.21R
CANNON AFB     SUNNY     80  60  50 SW9       30.13R
CLOVIS         NOT AVBL
HOLLOMAN AFB   SUNNY     82  45  27 NW3       30.09S
ROSWELL        SUNNY     82  60  47 S15       30.07S
RUIDOSO        SUNNY     77  43  29 CALM      30.32S
SANTA FE       SUNNY     76  49  38 N16       30.27S
TRUTH OR CONSE SUNNY     84  47  27 SE3       30.14S
TUCUMCARI      SUNNY     85  57  38 SW18G28   30.07S
$$



USA.gov is the U.S. government's official web portal to all federal, state and local government web resources and services.